Погода в Васильевке

Россия / Оренбургская область     51°51′31″N   56°25′12″E
темп.,
°C
ветер,
м/с
пор.,
м/с
влажн.,
%
обл.,
%
осадки,
мм/ч
давл.,
гПа
погр.,
м
28 июля, ср
ср2823:00+18ссз22411 0.0 101511
02:00+16з11495 0.0 101411
05:00+15зюз115813 0.0 101311
08:00+20зсз235010 0.0 1013283
11:00+24сз564191 0.0 10121691
14:00+27сз662533 0.0 10103031
17:00+28ссз772318 0.0 10093073
20:00+24с79280 0.0 1011931
29 июля, чт
чт2923:00+16ссв46400 0.0 101377
02:00+13всв22530 0.0 101414
05:00+11св22590 0.0 101512
08:00+17ссв22460 0.0 1015221
11:00+23с22270 0.0 10151738
14:00+26зсз33195 0.0 10132374
17:00+28з451555 0.0 10122780
20:00+25юз362014 0.0 1011181
30 июля, пт
пт3023:00+19ююз363181 0.0 101298
02:00+18ююз41132100 0.0 1011206
05:00+19в1130100 0.0 101111
08:00+22ю61226100 0.1 1010615
11:00+27ююз9142180 0.1 10091042
14:00+33зюз91224100 0.1 10073484
17:00+30з6103298 0.2 10061374
20:00+30сз693098 0.0 10071049
31 июля, сб
сб3123:00+21с35595 0.1 100960
02:00+19св117065 0.0 100911
05:00+18в117313 0.0 101011
08:00+24юв115164 0.0 1011192
11:00+31зюз353259 0.0 10101774
14:00+34зюз5824100 0.0 10083523
17:00+29сз464183 0.2 1008434
20:00+27ссз244635 0.2 100970
1 августа, вс
вс123:00+24вюв115594 0.2 100913
02:00+23ююв235485 0.0 100946
05:00+21з2457100 0.0 101073
08:00+24зсз355975 0.1 1011316
11:00+29сз57433 0.1 10111224
14:00+33сз6730100 0.0 10102610
17:00+32ссз5625100 0.0 10112668
20:00+30с472755 0.0 1011388